Stations météo

réclame
Mon MeteoGroup
Landsort, Suède (2582): Température de l'air & dewpoint: 18.01.2020 16:00:00 - 24.01.2020 16:00:00 (CET)Landsort, Suède (2582): Vitesse du vent & gusts: 18.01.2020 16:00:00 - 24.01.2020 16:00:00 (CET)Landsort, Suède (2582): Direction du vent: 18.01.2020 16:00:00 - 24.01.2020 16:00:00 (CET)Landsort, Suède (2582): reduced air pressure: 18.01.2020 16:00:00 - 24.01.2020 16:00:00 (CET)Landsort, Suède (2582): visibility: 18.01.2020 16:00:00 - 24.01.2020 16:00:00 (CET)Landsort, Suède (2582): Quantités de précipitations: 18.01.2020 16:00:00 - 24.01.2020 16:00:00 (CET)
Date & Time tt [°C] td [°C] ff [km/h] ff [knt] fx [km/h] fx [knt] dd ppp [hPa] vv [km] rr [mm]
24.01.2020 16:00:00 - - - - - - - - - -
24.01.2020 15:00:00 5,3 3,5 26 14 35 19 WSW 1004,6 38 0,0
24.01.2020 14:00:00 5,6 3,8 30 16 37 20 WSW 1004,9 37 0,0
24.01.2020 13:00:00 5,4 3,6 30 16 35 19 WSW 1005,1 34 0,0
24.01.2020 12:00:00 5,6 3,8 29 15 39 21 W 1005,5 36 0,0
24.01.2020 11:00:00 5,7 3,7 33 18 39 21 W 1005,5 35 0,0
24.01.2020 10:00:00 5,8 3,8 28 15 34 18 W 1005,6 44 0,0
24.01.2020 09:00:00 5,4 3,6 28 15 34 19 W 1005,5 32 0,0
24.01.2020 08:00:00 5,4 3,6 28 15 36 20 W 1005,9 40 0,0
24.01.2020 07:00:00 5,3 3,5 35 19 39 21 W 1005,6 36 0,0
24.01.2020 06:00:00 5,2 3,4 32 17 45 25 W 1006,1 31 0,0
24.01.2020 05:00:00 5,4 3,6 41 22 49 26 W 1006,3 35 0,0
24.01.2020 04:00:00 5,5 3,5 40 21 44 24 W 1006,9 43 0,0
24.01.2020 03:00:00 5,6 3,6 33 18 48 26 W 1007,3 45 0,0
24.01.2020 02:00:00 6,0 3,8 35 19 44 24 W 1007,3 50 0,0
24.01.2020 01:00:00 5,6 3,9 26 14 35 19 W 1008,2 45 0,0
24.01.2020 00:00:00 5,2 3,9 27 15 40 22 W 1008,5 44 0,0
23.01.2020 23:00:00 5,5 4,0 31 17 36 19 W 1008,9 50 0,0
23.01.2020 22:00:00 5,7 4,0 31 17 41 22 W 1009,3 50 0,0
23.01.2020 21:00:00 5,3 4,0 27 14 33 18 W 1009,6 50 0,0
23.01.2020 20:00:00 4,9 3,6 21 11 35 19 W 1010,3 50 0,0
23.01.2020 19:00:00 5,0 3,7 29 15 41 22 W 1010,9 50 0,0
23.01.2020 18:00:00 4,7 3,5 30 16 35 19 W 1011,6 49 0,0
23.01.2020 17:00:00 4,5 3,2 27 14 39 21 WSW 1012,3 50 0,0
23.01.2020 16:00:00 4,1 2,8 29 16 47 25 WSW 1013,4 34 0,0
23.01.2020 15:00:00 4,1 2,5 35 19 56 31 WSW 1014,1 41 0,0
23.01.2020 14:00:00 3,8 0,8 43 23 56 30 WSW 1014,8 50 0,0
23.01.2020 13:00:00 3,5 -0,7 41 22 53 29 WSW 1015,9 48 0,0
23.01.2020 12:00:00 3,3 -0,7 31 17 46 25 WSW 1017,3 41 0,0
23.01.2020 11:00:00 3,2 -1,6 34 18 46 25 WSW 1019,0 50 0,0
23.01.2020 10:00:00 3,0 -1,9 30 16 39 21 WSW 1019,9 48 0,0
23.01.2020 09:00:00 2,6 -1,0 28 15 37 20 WSW 1021,1 50 0,0
23.01.2020 08:00:00 1,7 -3,0 26 14 36 19 W 1022,0 50 0,0
23.01.2020 07:00:00 1,2 -3,5 17 9 29 16 WNW 1023,4 50 0,0
23.01.2020 06:00:00 0,7 -4,1 18 10 27 14 WNW 1023,8 50 0,0
23.01.2020 05:00:00 0,8 -4,2 10 6 25 14 NW 1024,6 50 0,0
23.01.2020 04:00:00 1,0 -4,0 18 10 31 17 WNW 1025,2 50 0,0
23.01.2020 03:00:00 1,5 -3,4 18 10 30 16 NW 1025,4 50 0,0
23.01.2020 02:00:00 1,6 -4,3 21 11 32 18 NW 1026,0 50 0,0
23.01.2020 01:00:00 1,7 -3,8 22 12 34 19 WNW 1026,1 50 0,0
23.01.2020 00:00:00 2,0 -3,9 23 12 - - NW 1026,4 50 0,0
22.01.2020 23:00:00 2,3 -4,0 25 14 - - NW 1025,9 50 0,0
22.01.2020 22:00:00 2,6 -3,3 25 13 37 20 NW 1025,6 50 0,0
22.01.2020 21:00:00 2,9 -3,0 25 14 41 22 NW 1025,6 50 0,0
22.01.2020 20:00:00 3,2 -2,7 30 16 46 25 NW 1024,9 50 0,0
22.01.2020 19:00:00 3,4 -2,6 23 12 33 18 NW 1024,8 50 0,0
22.01.2020 18:00:00 3,8 -1,6 20 11 31 17 NW 1024,3 50 0,0
22.01.2020 17:00:00 4,2 -2,0 26 14 40 22 NW 1023,6 50 0,0
22.01.2020 16:00:00 4,4 -1,8 26 14 43 23 NW 1022,7 50 0,0
22.01.2020 15:00:00 4,7 -2,6 27 15 48 26 NNW 1021,5 50 0,0
22.01.2020 14:00:00 4,8 -3,7 32 17 62 33 NW 1020,6 47 0,0
22.01.2020 13:00:00 4,7 -3,8 45 24 68 37 NNW 1019,2 50 0,0
22.01.2020 12:00:00 4,4 -3,1 40 21 71 38 NW 1018,3 46 0,0
22.01.2020 11:00:00 4,1 -3,4 44 24 61 33 NW 1017,3 42 0,0
22.01.2020 10:00:00 4,0 -3,3 39 21 61 33 NW 1016,7 50 0,0
22.01.2020 09:00:00 4,2 -3,3 38 20 57 31 NW 1015,9 50 0,0
22.01.2020 08:00:00 4,4 -2,9 37 20 59 32 NW 1015,2 50 0,0
22.01.2020 07:00:00 4,6 -2,5 33 18 54 29 NW 1014,5 50 0,0
22.01.2020 06:00:00 4,8 -2,3 32 17 54 29 NW 1014,3 50 0,0
22.01.2020 05:00:00 5,2 -2,4 35 19 52 28 NW 1014,1 50 0,0
22.01.2020 04:00:00 5,4 -1,5 34 18 52 28 NW 1014,0 50 0,0
22.01.2020 03:00:00 5,7 -1,7 36 19 56 31 NW 1013,8 50 0,0
22.01.2020 02:00:00 5,4 -0,7 34 18 52 28 WNW 1013,7 50 0,0
22.01.2020 01:00:00 5,0 0,8 24 13 39 21 WNW 1014,5 50 0,0
22.01.2020 00:00:00 5,1 2,3 27 15 37 20 W 1014,7 48 0,0
21.01.2020 23:00:00 5,0 3,5 24 13 36 20 W 1015,4 25 0,0
21.01.2020 22:00:00 5,2 3,9 31 17 39 21 W 1016,4 22 0,0
21.01.2020 21:00:00 5,0 3,7 30 16 36 19 W 1017,2 24 0,0
21.01.2020 20:00:00 4,8 3,3 24 13 32 18 W 1017,7 33 0,0
21.01.2020 19:00:00 5,3 2,6 18 10 25 13 W 1019,0 50 0,0
21.01.2020 18:00:00 6,1 3,4 21 12 30 16 W 1019,6 44 0,0
21.01.2020 17:00:00 5,7 3,9 22 12 26 14 W 1019,8 38 0,0
21.01.2020 16:00:00 6,1 3,6 23 12 27 15 W 1019,8 42 0,0
21.01.2020 15:00:00 6,1 3,8 20 11 23 12 W 1019,8 49 0,0
21.01.2020 14:00:00 6,4 4,2 8 4 18 10 W 1019,7 36 0,0
21.01.2020 13:00:00 6,1 4,3 11 6 34 18 NW 1019,5 28 0,0
21.01.2020 12:00:00 7,2 4,5 22 12 - - WNW 1019,5 15 0,0
21.01.2020 11:00:00 7,1 4,4 25 14 40 22 WNW 1018,5 27 0,0
21.01.2020 10:00:00 6,6 4,4 30 16 38 21 W 1018,4 21 0,0
21.01.2020 09:00:00 6,6 4,4 30 16 36 20 W 1017,5 23 0,0
21.01.2020 08:00:00 6,6 4,4 25 13 47 25 W 1017,0 21 0,0
21.01.2020 07:00:00 6,4 4,2 42 23 56 31 W 1016,5 19 0,0
21.01.2020 06:00:00 6,4 4,2 48 26 59 32 W 1016,6 20 0,0
21.01.2020 05:00:00 6,6 4,6 44 24 56 30 W 1017,0 22 0,0
21.01.2020 04:00:00 6,4 4,6 50 27 68 37 W 1017,1 18 0,0
21.01.2020 03:00:00 6,5 4,7 58 31 69 37 W 1017,7 16 0,0
21.01.2020 02:00:00 6,1 4,7 45 24 54 29 W 1018,8 17 0,0
21.01.2020 01:00:00 6,1 4,7 40 22 49 27 W 1019,9 28 0,0
21.01.2020 00:00:00 5,7 4,5 34 19 49 26 W 1021,2 18 0,0
20.01.2020 23:00:00 5,7 4,2 41 22 50 27 W 1021,6 19 0,0
20.01.2020 22:00:00 5,5 4,0 40 22 49 27 W 1022,6 17 0,0
20.01.2020 21:00:00 5,4 3,6 36 19 44 24 W 1023,4 18 0,0
20.01.2020 20:00:00 5,4 3,6 37 20 46 25 WSW 1023,6 17 0,0
20.01.2020 19:00:00 5,3 3,5 30 16 42 23 W 1024,4 16 0,0
20.01.2020 18:00:00 5,4 3,6 39 21 49 26 W 1024,8 16 0,0
20.01.2020 17:00:00 5,3 3,5 40 22 53 28 W 1025,3 15 0,0
20.01.2020 16:00:00 5,2 3,2 39 21 51 27 WSW 1025,8 17 0,0
20.01.2020 15:00:00 5,0 3,0 36 19 50 27 WSW 1026,6 18 0,0
20.01.2020 14:00:00 4,9 2,8 35 19 46 25 WSW 1027,3 24 0,0
20.01.2020 13:00:00 4,9 2,4 39 21 49 27 W 1028,1 33 0,0
20.01.2020 12:00:00 - - 37 20 52 28 WSW 1028,5 34 0,0
20.01.2020 11:00:00 4,3 1,3 36 20 47 26 WSW 1029,0 41 0,0
20.01.2020 10:00:00 3,8 0,5 37 20 49 26 WSW 1029,9 45 0,0
20.01.2020 09:00:00 3,4 -0,2 35 19 48 26 WSW 1030,3 44 0,0
20.01.2020 08:00:00 3,3 -0,7 31 17 40 22 WSW 1030,7 50 0,0
20.01.2020 07:00:00 2,9 -0,2 31 17 40 22 W 1031,0 50 0,0
20.01.2020 06:00:00 2,8 -0,1 32 18 39 21 WSW 1031,3 50 0,0
20.01.2020 05:00:00 3,0 -0,5 31 17 40 22 W 1031,9 50 0,0
20.01.2020 04:00:00 2,6 -0,7 24 13 29 15 W 1032,5 50 0,0
20.01.2020 03:00:00 2,5 -0,9 19 11 32 17 W 1033,0 50 0,0
20.01.2020 02:00:00 2,4 -1,0 28 15 35 19 W 1033,2 50 0,0
20.01.2020 01:00:00 2,3 -1,0 24 13 34 18 W 1033,1 50 0,0
20.01.2020 00:00:00 2,7 -0,9 26 14 33 18 W 1033,1 50 0,0
19.01.2020 23:00:00 2,7 -1,1 25 14 36 20 WNW 1033,2 50 0,0
19.01.2020 22:00:00 2,8 -0,7 16 9 26 14 WNW 1032,7 50 0,0
19.01.2020 21:00:00 2,8 -1,0 17 9 28 15 WNW 1032,0 50 0,0
19.01.2020 20:00:00 3,2 -0,1 16 9 24 13 WNW 1032,0 50 0,0
19.01.2020 19:00:00 3,5 0,0 15 8 29 16 WNW 1031,3 50 0,0
19.01.2020 18:00:00 3,6 0,6 22 12 29 16 WNW 1030,2 50 0,0
19.01.2020 17:00:00 3,8 1,2 21 11 26 14 W 1029,2 50 0,0
19.01.2020 16:00:00 4,1 1,5 16 9 24 13 W 1028,3 50 0,0
19.01.2020 15:00:00 4,3 2,0 20 11 27 15 W 1027,4 50 0,0
19.01.2020 14:00:00 4,4 1,6 20 11 28 15 W 1026,5 50 0,0
19.01.2020 13:00:00 4,2 1,2 18 10 26 14 WNW 1025,5 50 0,0
19.01.2020 12:00:00 3,8 0,8 17 9 29 16 WNW 1024,3 50 0,0
19.01.2020 11:00:00 3,5 0,7 26 14 35 19 WNW 1023,5 50 0,0
19.01.2020 10:00:00 3,3 0,9 24 13 32 17 WNW 1022,4 50 0,0
19.01.2020 09:00:00 3,2 1,4 19 11 31 17 W 1021,6 50 0,0
19.01.2020 08:00:00 3,3 1,8 26 14 34 18 WNW 1019,9 50 0,0
19.01.2020 07:00:00 3,7 2,1 24 13 29 16 WNW 1018,3 50 0,0
19.01.2020 06:00:00 4,2 2,4 21 12 32 17 WNW 1017,0 50 0,0
19.01.2020 05:00:00 4,7 2,2 19 10 40 22 WNW 1015,8 50 0,0
19.01.2020 04:00:00 5,1 2,6 24 13 34 19 W 1014,4 50 0,0
19.01.2020 03:00:00 5,4 2,9 28 15 36 20 W 1013,2 50 0,0
19.01.2020 02:00:00 4,9 3,6 24 13 35 19 W 1011,9 48 0,0
19.01.2020 01:00:00 4,9 3,6 22 12 34 19 WSW 1010,7 50 0,0
19.01.2020 00:00:00 4,9 3,4 26 14 37 20 WSW 1009,8 50 0,0
18.01.2020 23:00:00 5,1 3,1 28 15 42 23 WSW 1009,4 40 0,0
18.01.2020 22:00:00 5,1 3,4 32 17 50 27 SW 1008,8 17 0,0
18.01.2020 21:00:00 5,2 3,2 29 16 55 30 SW 1008,4 50 0,0
18.01.2020 20:00:00 5,3 2,8 36 20 52 28 SW 1008,2 50 0,0
18.01.2020 19:00:00 5,2 2,9 35 19 50 27 SW 1008,2 49 0,0
18.01.2020 18:00:00 5,4 2,6 34 19 49 26 SW 1007,9 50 0,0
18.01.2020 17:00:00 5,5 2,8 29 16 43 23 SW 1007,9 50 0,0
18.01.2020 16:00:00 5,7 3,2 29 16 41 22 SW 1007,8 50 0,0

tt = Température de l'air
td = dewpoint
ff = Vitesse du vent
fx = gusts
dd = Direction du vent
ppp = reduced air pressure
vv = visibility
rr = Quantités de précipitations

stations d'obs. à proximité